CZ-4 DEB, 27493

Orbit data source: Space-Track

CZ-4 DEB, 27493 is space debris in SSO originally from a launch on Thu, 14 Oct 1999 UTC launched from the Taiyaun Space Center, China (TSC). Debris objects in space refer to the collection of defunct objects orbiting the Earth. Examples of debris include non-operational satellites, rocket bodies, and fragments generated from explosions, collisions, or faulty payload assembly.

Loading next visibility...
Identifier
27493, 1999-057MN
Orbit
SSO
Country
Flag of CNCN / PRC
Related business
Manufacturer
Unknown
Mission
Spacecraft
Bus & Motor
Unknown
Mass
Unknown
Launch date (UTC)
1999-10-14 (26 years ago)
Launch vehicle
Unknown
Launch site
Taiyaun Space Center, China (TSC)
Object type
Payload
Rocket body
Debris
Shape & HBR
Unknown shape, 0.1 m
Radar Cross Section
Small (<0.1 m²)

Expand to show TLE details & history
Last TLE update: 1 day ago

TLE from 1 day ago
0 CZ-4 DEB
1 27493U 99057MN  25296.40727137  .00001790  00000-0  46343-3 0  9990
2 27493  98.5782 345.0111 0074469 177.7311 198.6760 14.49475828316838
Epoch: 2025-10-23T09:46Z
TLE epoch observation values (Epoch: 2025-10-23T09:46:28.246Z)
Latitude
15.93128°
Longitude
163.87171°
Altitude
779.825 km
Speed
7.439 km/s
True Right ascension
22h 50m 13s
True Declination
15° 50' 28"
Sunlit
Object was in full shadow at epoch
Visualization orbit readout
Latitude
Unknown
Longitude
Unknown
Altitude
Unknown
Speed
Unknown
Apparent Right ascension
Unknown
Apparent Declination
Unknown
Sunlit
N/A
Visualization observer readout
Local Sidereal Time
10:31:00
Azimuth
Unknown
Elevation
Unknown
Doppler factor
Unknown
Orbital elements
Apogee altitude
777.366 km
Perigee altitude
671.581 km
Semi-major axis
7,102.611 km
Eccentricity
0.00745
Inclination
98.5782°
RAAN
345.0111°
Arg. of periapsis
177.7311°
True anomaly
198.40513°
Mean anomaly
198.676°
Eccentric anomaly
198.54033°
Mean motion
3.6259 °/min
Orbital period
99.29 mins
BSTAR
0.00046343
Loading maneuver chart data...
Computing Atmospheric mass density...

Documentation

Showing up to 5 results
|